FW6620 Weather Reports


Display with metric or nautical units.
time (UTC)temp
F
wind
direction
speed
MPH
gust
MPH
rain 1hr
in
rain 24hr
in
rain mn
in
humidity
%
barometer
mb
20260506135048 76 0 0.0 1.0 0.00 0.00 0.00 92 1010.4
20260506134552 76 0 0.0 2.0 0.00 0.00 0.00 91 1010.1
20260506134048 76 0 0.0 2.0 0.00 0.00 0.00 91 1010.1
20260506133548 76 0 0.0 0.0 0.00 0.00 0.00 91 1010.1
20260506133046 76 0 0.0 2.0 0.00 0.00 0.00 91 1010.0
20260506132547 75 0 0.0 2.0 0.00 0.00 0.00 91 1010.0
20260506132047 75 24 0.0 2.0 0.00 0.00 0.00 92 1010.0
20260506131551 75 0 0.0 1.0 0.00 0.00 0.00 92 1010.0
20260506131047 75 0 0.0 2.0 0.00 0.00 0.00 92 1010.0
20260506130547 75 0 0.0 2.0 0.00 0.00 0.00 92 1009.9
20260506125548 75 0 0.0 1.0 0.00 0.00 0.00 92 1009.7
20260506125047 75 0 0.0 1.0 0.00 0.00 0.00 92 1009.7
20260506124557 75 0 0.0 1.0 0.00 0.00 0.00 92 1009.7
20260506124048 75 0 0.0 0.0 0.00 0.00 0.00 92 1009.7
20260506123548 75 0 0.0 0.0 0.00 0.00 0.00 92 1009.7
20260506123051 75 0 0.0 1.0 0.00 0.00 0.00 92 1009.7
20260506122550 75 0 0.0 1.0 0.00 0.00 0.00 92 1009.8
20260506122047 75 0 0.0 1.0 0.00 0.00 0.00 92 1009.7
20260506121547 75 0 0.0 0.0 0.00 0.00 0.00 92 1009.8
20260506121047 75 0 0.0 0.0 0.00 0.00 0.00 92 1009.8
20260506120550 75 0 0.0 0.0 0.00 0.00 0.00 92 1009.7
20260506120049 75 0 0.0 0.0 0.00 0.00 0.00 92 1009.6
20260506115547 75 0 0.0 0.0 0.00 0.00 0.00 92 1009.5
20260506115046 75 0 0.0 2.0 0.00 0.00 0.00 92 1009.5
20260506114547 75 0 0.0 2.0 0.00 0.00 0.00 92 1009.5
20260506114047 75 0 0.0 0.0 0.00 0.00 0.00 92 1009.6
20260506113547 75 0 0.0 0.0 0.00 0.00 0.00 92 1009.5
20260506113055 75 0 0.0 0.0 0.00 0.00 0.00 92 1009.7
20260506112549 75 0 0.0 0.0 0.00 0.00 0.00 91 1009.6
20260506112047 75 0 0.0 0.0 0.00 0.00 0.00 91 1009.5
20260506111552 75 0 0.0 0.0 0.00 0.00 0.00 91 1009.6
20260506111048 75 0 0.0 0.0 0.00 0.00 0.00 91 1009.7
20260506110548 75 0 0.0 1.0 0.00 0.00 0.00 91 1009.5
20260506110100 75 0 0.0 1.0 0.00 0.00 0.00 91 1009.6
20260506105548 75 0 0.0 1.0 0.00 0.00 0.00 91 1009.5
20260506105048 75 0 0.0 1.0 0.00 0.00 0.00 91 1009.4
20260506104557 75 0 0.0 0.0 0.00 0.00 0.00 91 1009.4
20260506104048 76 0 0.0 0.0 0.00 0.00 0.00 91 1009.5
20260506103548 76 0 0.0 0.0 0.00 0.00 0.00 91 1009.4
20260506103059 76 0 0.0 1.0 0.00 0.00 0.00 90 1009.3
20260506102547 76 0 0.0 2.0 0.00 0.00 0.00 90 1009.3
20260506102047 76 0 0.0 2.0 0.00 0.00 0.00 90 1009.2
20260506101608 75 0 0.0 2.0 0.00 0.00 0.00 90 1009.0
20260506101047 76 0 0.0 4.0 0.00 0.00 0.00 91 1009.0
20260506100547 76 0 0.0 4.0 0.00 0.00 0.00 91 1009.0
20260506100114 76 0 0.0 2.0 0.00 0.00 0.00 91 1008.9
20260506095548 76 0 0.0 1.0 0.00 0.00 0.00 91 1008.8
20260506095049 76 0 0.0 2.0 0.00 0.00 0.00 91 1008.8
20260506094551 76 0 0.0 2.0 0.00 0.00 0.00 91 1008.8
20260506094049 76 0 0.0 3.0 0.00 0.00 0.00 91 1008.6
20260506093547 76 24 0.0 3.0 0.00 0.00 0.00 91 1008.6
20260506093051 76 0 1.0 3.0 0.00 0.00 0.00 91 1008.5
20260506092547 76 22 0.0 2.0 0.00 0.00 0.00 91 1008.5
20260506092048 76 0 0.0 5.0 0.00 0.00 0.00 91 1008.5
20260506091555 76 0 0.0 5.0 0.00 0.00 0.00 91 1008.5
20260506091048 76 0 0.0 4.0 0.00 0.00 0.00 91 1008.3
20260506090547 76 0 0.0 6.0 0.00 0.00 0.00 90 1008.1
20260506090056 76 0 1.0 6.0 0.00 0.00 0.00 90 1008.2
20260506085547 76 37 0.0 8.0 0.00 0.00 0.00 90 1008.2
20260506085049 76 0 1.0 5.0 0.00 0.00 0.00 90 1008.2
20260506084619 76 31 0.0 4.0 0.00 0.00 0.00 90 1008.3
20260506084047 76 24 0.0 4.0 0.00 0.00 0.00 90 1008.4
20260506083547 76 0 0.0 3.0 0.00 0.00 0.00 90 1008.4
20260506083051 76 25 0.0 7.0 0.00 0.00 0.00 90 1008.3
20260506082546 76 25 1.0 7.0 0.00 0.00 0.00 90 1008.4
20260506082048 76 25 1.0 6.0 0.00 0.00 0.00 90 1008.2
20260506081555 76 26 2.0 6.0 0.00 0.00 0.00 90 1008.3
20260506081047 76 0 0.0 6.0 0.00 0.00 0.00 90 1008.4
20260506080548 76 23 1.0 6.0 0.00 0.00 0.00 90 1008.4
20260506073056 76 29 2.0 6.0 0.00 0.00 0.00 90 1008.7
20260506072547 76 19 1.0 6.0 0.00 0.00 0.00 90 1008.8
20260506072047 76 0 0.0 5.0 0.00 0.00 0.00 90 1008.8
20260506071552 76 47 1.0 5.0 0.00 0.00 0.00 89 1008.8
20260506071048 76 23 1.0 6.0 0.00 0.00 0.00 89 1008.8
20260506070548 76 26 1.0 6.0 0.00 0.00 0.00 89 1008.8
20260506070103 76 23 1.0 6.0 0.00 0.00 0.00 89 1008.9
20260506062047 76 22 2.0 6.0 0.00 0.00 0.00 89 1008.9
20260506061604 76 33 0.0 6.0 0.00 0.00 0.00 89 1008.9
20260506061047 76 0 2.0 6.0 0.00 0.00 0.00 89 1008.8
20260506060547 76 26 1.0 5.0 0.00 0.00 0.00 89 1008.8
20260506060104 76 29 1.0 5.0 0.00 0.00 0.00 90 1008.9
20260506051047 77 38 0.0 5.0 0.00 0.00 0.00 89 1008.9
20260506050547 77 0 1.0 6.0 0.00 0.00 0.00 88 1008.8
20260506045050 77 0 0.0 6.0 0.00 0.00 0.00 88 1008.9
20260506044702 77 0 1.0 6.0 0.00 0.00 0.00 88 1008.9
20260506044049 77 24 1.0 6.0 0.00 0.00 0.00 88 1008.9
20260506043548 77 0 0.0 5.0 0.00 0.00 0.00 88 1008.9
20260506043050 77 20 0.0 5.0 0.00 0.00 0.00 87 1008.9
20260506042548 77 0 1.0 4.0 0.00 0.00 0.00 87 1008.8
20260506042047 77 24 1.0 5.0 0.00 0.00 0.00 87 1008.7
20260506041600 78 0 1.0 5.0 0.00 0.00 0.00 87 1008.7
20260506041047 78 17 0.0 6.0 0.00 0.00 0.00 87 1008.7
20260506040550 78 0 1.0 6.0 0.00 0.00 0.00 87 1008.7
20260506040050 78 20 1.0 4.0 0.00 0.00 0.00 87 1008.7
20260506035547 78 0 0.0 4.0 0.00 0.00 0.00 86 1008.5
20260506035047 78 0 1.0 6.0 0.00 0.00 0.00 86 1008.4
20260506034623 78 22 1.0 6.0 0.00 0.00 0.00 86 1008.4
20260506034046 78 0 1.0 6.0 0.00 0.00 0.00 86 1008.4
20260506033546 78 0 0.0 4.0 0.00 0.00 0.00 86 1008.5
20260506033101 78 0 0.0 3.0 0.00 0.00 0.00 86 1008.3
20260506032547 78 23 0.0 4.0 0.00 0.00 0.00 86 1008.3
20260506032047 78 0 0.0 5.0 0.00 0.00 0.00 85 1008.1
20260506031553 78 0 1.0 5.0 0.00 0.00 0.00 85 1008.0
20260506031047 78 27 1.0 5.0 0.00 0.00 0.00 85 1008.0
20260506030546 79 21 1.0 5.0 0.00 0.00 0.00 85 1008.0
20260506030053 79 0 1.0 5.0 0.00 0.00 0.00 85 1007.9
20260506025547 79 0 0.0 5.0 0.00 0.00 0.00 84 1008.1
20260506025052 79 24 0.0 3.0 0.00 0.00 0.00 84 1007.9
20260506024549 79 0 0.0 7.0 0.00 0.00 0.00 84 1007.8
20260506024047 79 0 1.0 7.0 0.00 0.00 0.00 83 1007.6
20260506023547 79 0 0.0 6.0 0.00 0.00 0.00 83 1007.5
20260506023108 79 24 0.0 6.0 0.00 0.00 0.00 83 1007.4
20260506022547 80 0 0.0 3.0 0.00 0.00 0.00 82 1007.2
20260506022046 80 24 0.0 2.0 0.00 0.00 0.00 82 1007.2
20260506021548 80 0 0.0 3.0 0.00 0.00 0.00 81 1007.0
20260506021047 80 0 0.0 3.0 0.00 0.00 0.00 81 1006.8
20260506020547 80 0 0.0 3.0 0.00 0.00 0.00 81 1006.8
20260506020051 80 0 0.0 3.0 0.00 0.00 0.00 81 1006.7
20260506015547 80 0 0.0 3.0 0.00 0.00 0.00 81 1006.8
20260506015047 80 24 0.0 3.0 0.00 0.00 0.00 81 1006.8
20260506014548 80 0 0.0 3.0 0.00 0.00 0.00 81 1006.8
20260506014046 80 0 0.0 3.0 0.00 0.00 0.00 81 1006.7
20260506013547 80 0 0.0 2.0 0.00 0.00 0.00 81 1006.7
20260506013050 80 0 0.0 1.0 0.00 0.00 0.00 80 1006.7
20260506012547 81 0 0.0 1.0 0.00 0.00 0.00 80 1006.6
20260506012048 81 0 0.0 0.0 0.00 0.00 0.00 80 1006.6
20260506011608 81 0 0.0 2.0 0.00 0.00 0.00 80 1006.7
20260506011047 81 0 0.0 2.0 0.00 0.00 0.00 80 1006.7
20260506010548 81 0 0.0 1.0 0.00 0.00 0.00 79 1006.7
20260506010100 81 0 0.0 1.0 0.00 0.00 0.00 80 1006.6
20260506005546 82 0 0.0 1.0 0.00 0.00 0.00 79 1006.7
20260506005047 82 0 0.0 0.0 0.00 0.00 0.00 79 1006.7
20260506004616 82 0 0.0 2.0 0.00 0.00 0.00 78 1006.7
20260506004048 82 0 0.0 2.0 0.00 0.00 0.00 78 1006.7
20260506003548 82 0 0.0 3.0 0.00 0.00 0.00 78 1006.6
20260506003104 82 0 0.0 2.0 0.00 0.00 0.00 78 1006.6
20260506002547 82 0 0.0 2.0 0.00 0.00 0.00 78 1006.6
20260506002048 82 0 0.0 2.0 0.00 0.00 0.00 78 1006.6
20260506001557 82 0 0.0 1.0 0.00 0.00 0.00 77 1006.6
20260506001047 83 0 0.0 3.0 0.00 0.00 0.00 77 1006.5
20260506000548 83 0 0.0 3.0 0.00 0.00 0.00 77 1006.4
20260506000053 83 24 0.0 1.0 0.00 0.00 0.00 77 1006.4
20260505235546 83 0 0.0 6.0 0.00 0.01 0.00 76 1006.5
20260505235048 83 24 1.0 6.0 0.00 0.01 0.00 75 1006.4
20260505234617 83 18 0.0 4.0 0.00 0.01 0.00 75 1006.4
20260505234048 83 0 0.0 4.0 0.00 0.01 0.00 76 1006.3
20260505233546 83 19 1.0 5.0 0.00 0.01 0.00 75 1006.1
20260505233049 83 0 1.0 5.0 0.00 0.01 0.00 75 1006.2
20260505232547 83 13 0.0 5.0 0.00 0.01 0.00 74 1006.2
20260505232047 83 17 1.0 5.0 0.00 0.01 0.00 75 1006.2
20260505231556 83 26 0.0 4.0 0.00 0.01 0.00 75 1006.3
20260505231048 83 26 0.0 4.0 0.00 0.01 0.00 74 1006.3
20260505230547 83 0 0.0 4.0 0.00 0.01 0.00 74 1006.2
20260505230054 83 26 0.0 5.0 0.00 0.01 0.00 74 1006.1
20260505225547 83 0 0.0 5.0 0.00 0.01 0.00 74 1006.0
20260505225047 83 19 0.0 4.0 0.00 0.01 0.00 74 1006.0
20260505224553 83 18 1.0 4.0 0.00 0.01 0.00 74 1006.1
20260505224045 83 26 1.0 4.0 0.00 0.01 0.00 74 1006.1
20260505223545 84 0 0.0 4.0 0.00 0.01 0.00 75 1005.9
20260505223051 84 24 1.0 4.0 0.00 0.01 0.00 75 1006.0
20260505222547 84 16 0.0 3.0 0.00 0.01 0.00 75 1006.0
20260505222047 84 0 0.0 3.0 0.00 0.01 0.00 75 1006.0
20260505221555 83 16 0.0 5.0 0.00 0.01 0.00 74 1006.0
20260505221046 83 16 1.0 6.0 0.00 0.01 0.00 74 1006.0
20260505220546 83 0 1.0 6.0 0.00 0.01 0.00 73 1006.1
20260505220105 83 12 1.0 7.0 0.00 0.01 0.00 73 1006.2
20260505215547 83 26 2.0 7.0 0.00 0.01 0.00 73 1006.2
20260505215047 84 16 2.0 7.0 0.00 0.01 0.00 72 1006.5
20260505214602 84 0 1.0 6.0 0.00 0.01 0.00 72 1006.6
20260505214046 84 25 1.0 7.0 0.00 0.01 0.00 72 1006.6
20260505213546 84 0 1.0 8.0 0.00 0.01 0.00 72 1006.6
20260505213101 84 37 0.0 8.0 0.00 0.01 0.00 73 1006.8
20260505212547 84 39 2.0 8.0 0.00 0.01 0.00 72 1006.8
20260505212045 84 26 1.0 7.0 0.00 0.01 0.00 72 1006.7
20260505211601 84 12 1.0 6.0 0.00 0.01 0.00 73 1006.7
20260505211047 84 37 1.0 6.0 0.00 0.01 0.00 73 1006.7
20260505210546 84 29 1.0 4.0 0.00 0.01 0.00 75 1006.8
20260505210053 84 0 1.0 4.0 0.00 0.01 0.00 75 1006.8
20260505205549 84 0 1.0 4.0 0.00 0.01 0.00 74 1006.9
20260505205047 83 0 1.0 6.0 0.00 0.01 0.00 75 1006.9
20260505204555 83 0 1.0 8.0 0.00 0.01 0.00 74 1006.9
20260505204047 83 28 1.0 8.0 0.00 0.01 0.00 76 1007.3
20260505203547 82 47 2.0 7.0 0.00 0.01 0.00 76 1007.5
20260505203054 82 33 0.0 5.0 0.00 0.01 0.00 76 1007.5
20260505202547 82 20 2.0 7.0 0.00 0.01 0.00 76 1007.6
20260505202046 82 23 1.0 8.0 0.00 0.01 0.00 76 1007.6
20260505201557 82 0 1.0 8.0 0.00 0.01 0.00 76 1007.7
20260505201047 81 27 1.0 6.0 0.00 0.01 0.00 77 1007.8
20260505200546 81 9 2.0 6.0 0.00 0.01 0.00 76 1007.8
20260505195545 81 12 2.0 8.0 0.00 0.01 0.00 77 1007.8
20260505195045 81 0 1.0 5.0 0.00 0.01 0.00 77 1008.0
20260505194553 81 0 0.0 6.0 0.00 0.01 0.00 79 1008.0
20260505194048 81 19 2.0 6.0 0.00 0.01 0.00 78 1008.1
20260505193545 81 19 0.0 4.0 0.00 0.01 0.00 78 1008.1
20260505193056 81 0 0.0 4.0 0.00 0.01 0.00 78 1008.1
20260505192547 81 18 1.0 5.0 0.00 0.01 0.00 79 1008.1
20260505192048 81 18 0.0 5.0 0.00 0.01 0.00 79 1008.1
20260505191556 81 24 1.0 4.0 0.00 0.01 0.00 80 1008.2
20260505191047 80 0 1.0 5.0 0.00 0.01 0.00 80 1008.2
20260505190550 80 23 0.0 6.0 0.00 0.01 0.00 80 1008.2
20260505190051 80 0 1.0 6.0 0.00 0.01 0.00 80 1008.3
20260505185546 80 18 1.0 6.0 0.00 0.01 0.00 80 1008.3
20260505185043 80 0 0.0 6.0 0.00 0.01 0.00 81 1008.4
20260505184558 79 53 0.0 5.0 0.00 0.01 0.00 82 1008.5
20260505184046 79 0 1.0 5.0 0.00 0.01 0.00 81 1008.6
20260505183545 79 0 1.0 5.0 0.00 0.01 0.00 82 1008.6
20260505183048 78 0 1.0 4.0 0.00 0.01 0.00 82 1008.8
20260505182545 78 0 0.0 5.0 0.00 0.01 0.00 83 1008.9
20260505182049 78 0 1.0 5.0 0.00 0.01 0.00 83 1009.0
20260505181551 78 0 2.0 5.0 0.00 0.01 0.00 84 1009.0
20260505181047 77 24 0.0 4.0 0.00 0.01 0.00 84 1008.9
20260505180548 77 24 1.0 4.0 0.00 0.01 0.00 84 1009.0
20260505180056 77 30 0.0 4.0 0.00 0.01 0.00 85 1009.1
20260505175547 76 30 2.0 4.0 0.00 0.01 0.00 85 1009.0
20260505175049 76 0 0.0 4.0 0.00 0.01 0.00 85 1009.3
20260505174607 76 19 2.0 4.0 0.00 0.01 0.00 85 1009.3
20260505174046 76 0 0.0 7.0 0.00 0.01 0.00 86 1009.4
20260505173546 76 0 1.0 7.0 0.00 0.01 0.00 85 1009.3
20260505173047 75 20 0.0 4.0 0.00 0.01 0.00 85 1009.4
20260505172545 75 22 0.0 4.0 0.00 0.01 0.00 86 1009.5
20260505172045 75 0 1.0 4.0 0.00 0.01 0.00 86 1009.5
20260505171549 75 26 1.0 3.0 0.00 0.01 0.00 86 1009.5
20260505171047 75 0 0.0 5.0 0.00 0.01 0.00 86 1009.6
20260505170546 75 26 0.0 5.0 0.00 0.01 0.00 87 1009.7
20260505170123 74 26 1.0 5.0 0.00 0.01 0.00 87 1009.6
20260505165547 74 0 1.0 5.0 0.00 0.01 0.00 87 1009.5
20260505165047 74 0 1.0 4.0 0.00 0.01 0.00 87 1009.5
20260505164551 74 0 0.0 2.0 0.00 0.01 0.00 88 1009.5
20260505164046 74 0 0.0 2.0 0.00 0.01 0.00 88 1009.6
20260505163546 74 0 0.0 2.0 0.00 0.01 0.00 88 1009.5
20260505163048 74 0 0.0 4.0 0.00 0.01 0.00 88 1009.4
20260505162545 73 42 1.0 3.0 0.00 0.01 0.00 88 1009.6
20260505162045 73 0 0.0 3.0 0.00 0.01 0.00 89 1009.6
20260505161554 73 0 0.0 3.0 0.00 0.01 0.00 89 1009.6
20260505161046 73 31 0.0 3.0 0.00 0.01 0.00 89 1009.7
20260505160549 73 35 0.0 4.0 0.00 0.01 0.00 89 1009.6
20260505153057 72 0 0.0 4.0 0.00 0.01 0.00 90 1009.8
20260505152548 72 33 0.0 4.0 0.00 0.01 0.00 90 1009.7
20260505152046 72 0 0.0 4.0 0.00 0.01 0.00 90 1009.7
20260505151551 72 33 0.0 2.0 0.00 0.01 0.00 90 1009.8
20260505151045 72 0 0.0 4.0 0.00 0.01 0.00 90 1009.5
20260505150546 72 0 0.0 4.0 0.00 0.01 0.00 90 1009.4
20260505140546 71 0 1.0 5.0 0.00 0.01 0.00 90 1009.2